Date String (YYYY-MM-DD hh:mm:ss) UTC,Instrument flags,Ambient pressure (hPa),Sample flow (lpm),Bypass flow (lpm),Sample temperature (°C),Ambient temperature (°C),ASC tube jacket temperature (°C),LED temperature (°C),Box temperature (°C),Sample RH (%),Span deviation,Mass concentration (μg/m³),Mass concentration (μg/m³),Mass concentration (μg/m³)
DateTimeUTC,F1_M11,P_M11,Q1_M11,Q2_M11,T1_M11,T2_M11,T3_M11,T4_M11,T5_M11,U1_M11,ZSPAN_M11,X0_M11,X2_M11,X1_M11
2022-07-12 09:00:00,,0830.5,5.00,0.00,29.8,27.7,00.0,38.7,31.5,29.4,0000.0,0018.68,0009.96,0008.87
2022-07-12 09:01:00,,0830.5,4.99,0.00,29.8,27.9,00.0,38.7,31.5,29.4,0000.0,0018.52,0009.99,0008.84
2022-07-12 09:02:00,,0830.5,5.01,0.00,29.8,28.0,00.0,38.7,31.6,29.4,0000.0,0018.95,0009.93,0008.81
2022-07-12 09:03:00,,0830.5,5.00,0.00,29.8,28.1,00.0,38.7,31.6,29.4,0000.0,0018.07,0009.90,0008.81
2022-07-12 09:04:00,,0830.5,5.01,0.00,29.8,28.2,00.0,38.7,31.6,29.3,0000.0,0018.09,0009.99,0008.82
2022-07-12 09:05:00,,0830.5,4.99,0.00,29.8,28.3,00.0,38.7,31.7,29.3,0000.0,0017.86,0009.98,0008.79
2022-07-12 09:06:00,,0830.5,5.00,0.00,29.8,28.4,00.0,38.6,31.7,29.3,0000.0,0018.68,0009.91,0008.72
2022-07-12 09:07:00,,0830.6,5.00,0.00,29.8,28.5,00.0,38.6,31.7,29.2,0000.0,0018.66,0009.81,0008.69
2022-07-12 09:08:00,,0830.5,5.00,0.00,29.8,28.5,00.0,38.7,31.7,29.2,0000.0,0018.20,0009.73,0008.67
2022-07-12 09:09:00,,0830.6,5.00,0.00,29.9,28.6,00.0,38.7,31.7,29.2,0000.0,0018.03,0009.78,0008.68
2022-07-12 09:10:00,,0830.5,5.00,0.00,29.9,28.6,00.0,38.7,31.8,29.2,0000.0,0017.49,0009.81,0008.68
2022-07-12 09:11:00,,0830.6,5.00,0.00,29.9,28.7,00.0,38.7,31.7,29.1,0000.0,0017.48,0009.81,0008.68
2022-07-12 09:12:00,,0830.6,5.00,0.00,29.9,28.7,00.0,38.7,31.7,29.1,0000.0,0017.06,0009.82,0008.70
2022-07-12 09:13:00,,0830.5,5.01,0.00,29.9,28.8,00.0,38.7,31.8,29.1,0000.0,0016.68,0009.82,0008.70
2022-07-12 09:14:00,,0830.6,5.00,0.00,29.9,28.8,00.0,38.7,31.8,29.0,0000.0,0016.65,0009.79,0008.69
2022-07-12 09:15:00,,0830.6,5.00,0.00,30.0,28.8,00.0,38.7,31.9,29.0,0000.0,0016.40,0009.69,0008.67
2022-07-12 09:16:00,,0830.6,4.99,0.00,30.0,28.9,00.0,38.7,31.9,29.0,0000.0,0016.32,0009.63,0008.67
2022-07-12 09:17:00,,0830.6,5.00,0.00,30.0,28.9,00.0,38.7,31.9,29.0,0000.0,0015.13,0009.64,0008.70
2022-07-12 09:18:00,,0830.6,4.99,0.00,30.0,28.9,00.0,38.8,31.9,28.9,0000.0,0014.95,0009.68,0008.71
2022-07-12 09:19:00,,0830.6,5.00,0.00,30.0,28.9,00.0,38.8,31.9,28.9,0000.0,0015.01,0009.76,0008.72
2022-07-12 09:20:00,,0830.6,5.00,0.00,30.1,29.0,00.0,38.8,32.0,28.8,0000.0,0015.23,0009.75,0008.70
2022-07-12 09:21:00,,0830.6,5.01,0.00,30.1,29.0,00.0,38.8,32.0,28.8,0000.0,0015.27,0009.71,0008.70
2022-07-12 09:22:00,,0830.6,5.00,0.00,30.1,29.0,00.0,38.8,32.0,28.7,0000.0,0015.86,0009.71,0008.70
2022-07-12 09:23:00,,0830.6,5.01,0.00,30.1,29.0,00.0,38.8,32.0,28.7,0000.0,0016.18,0009.66,0008.67
2022-07-12 09:24:00,,0830.6,5.00,0.00,30.1,29.0,00.0,38.9,32.0,28.7,0000.0,0015.98,0009.68,0008.68
2022-07-12 09:25:00,,0830.6,5.00,0.00,30.1,29.1,00.0,38.9,32.0,28.7,0000.0,0015.95,0009.76,0008.70
2022-07-12 09:26:00,,0830.6,5.00,0.00,30.2,29.1,00.0,38.9,32.0,28.7,0000.0,0017.05,0009.79,0008.74
2022-07-12 09:27:00,,0830.6,5.00,0.00,30.2,29.1,00.0,38.9,32.0,28.7,0000.0,0017.65,0009.82,0008.74
2022-07-12 09:28:00,,0830.7,5.00,0.00,30.2,29.1,00.0,38.9,32.1,28.6,0000.0,0018.57,0009.84,0008.74
2022-07-12 09:29:00,,0830.7,5.00,0.00,30.2,29.1,00.0,38.9,32.1,28.7,0000.0,0018.93,0009.88,0008.77
2022-07-12 09:30:00,,0830.7,4.99,0.00,30.2,29.1,00.0,38.9,32.1,28.6,0000.0,0018.98,0009.82,0008.76
2022-07-12 09:31:00,,0830.7,5.01,0.00,30.2,28.4,00.0,38.9,32.0,28.5,0000.0,0019.71,0009.75,0008.76
2022-07-12 09:32:00,,0830.7,5.00,0.00,30.1,27.7,00.0,38.8,31.9,28.7,0000.0,0019.80,0009.72,0008.75
2022-07-12 09:33:00,,0830.8,5.00,0.00,30.1,27.5,00.0,38.8,31.8,28.8,0000.0,0019.07,0009.65,0008.74
2022-07-12 09:34:00,,0830.8,5.00,0.00,29.9,27.5,00.0,38.8,31.6,29.0,0000.0,0019.01,0009.67,0008.73
2022-07-12 09:35:00,,0830.8,5.00,0.00,29.9,27.6,00.0,38.8,31.6,29.1,0000.0,0019.67,0009.66,0008.71
2022-07-12 09:36:00,,0830.8,5.01,0.00,29.9,27.7,00.0,38.7,31.6,29.3,0000.0,0020.78,0009.58,0008.67
2022-07-12 09:37:00,,0830.8,5.00,0.00,29.8,27.9,00.0,38.7,31.6,29.5,0000.0,0020.80,0009.57,0008.64
2022-07-12 09:38:00,,0830.8,4.99,0.00,29.8,28.0,00.0,38.7,31.6,29.7,0000.0,0020.16,0009.58,0008.65
2022-07-12 09:39:00,,0830.8,5.01,0.00,29.8,28.1,00.0,38.7,31.7,29.6,0000.0,0019.40,0009.59,0008.66
2022-07-12 09:40:00,,0830.7,5.00,0.00,29.8,28.2,00.0,38.7,31.7,29.6,0000.0,0018.99,0009.55,0008.64
2022-07-12 09:41:00,,0830.8,5.01,0.00,29.8,28.3,00.0,38.7,31.7,29.6,0000.0,0018.90,0009.59,0008.66
2022-07-12 09:42:00,,0830.8,4.99,0.00,29.8,28.4,00.0,38.7,31.7,29.6,0000.0,0017.68,0009.61,0008.68
2022-07-12 09:43:00,,0830.8,5.00,0.00,29.9,28.5,00.0,38.7,31.7,29.6,0000.0,0017.63,0009.65,0008.72
2022-07-12 09:44:00,,0830.9,5.01,0.00,29.9,28.6,00.0,38.7,31.7,29.4,0000.0,0018.62,0009.76,0008.78
2022-07-12 09:45:00,,0830.9,5.00,0.00,29.9,28.6,00.0,38.7,31.8,29.2,0000.0,0018.23,0009.82,0008.83
2022-07-12 09:46:00,,0830.9,5.00,0.00,29.9,28.7,00.0,38.7,31.8,29.2,0000.0,0018.24,0009.88,0008.90
2022-07-12 09:47:00,,0830.9,5.00,0.00,29.9,28.7,00.0,38.7,31.7,29.1,0000.0,0017.89,0009.95,0008.97
2022-07-12 09:48:00,,0830.8,5.02,0.00,29.9,28.8,00.0,38.7,31.8,29.0,0000.0,0017.14,0009.98,0009.02
2022-07-12 09:49:00,,0830.8,5.00,0.00,30.0,28.8,00.0,38.8,31.8,28.9,0000.0,0017.25,0010.04,0009.08
2022-07-12 09:50:00,,0830.8,5.00,0.00,30.0,28.8,00.0,38.8,31.9,28.9,0000.0,0017.67,0010.09,0009.13
2022-07-12 09:51:00,,0830.8,5.00,0.00,30.0,28.9,00.0,38.8,31.9,28.9,0000.0,0018.01,0010.17,0009.20
2022-07-12 09:52:00,,0830.9,5.00,0.00,30.0,28.9,00.0,38.8,31.9,28.9,0000.0,0018.37,0010.24,0009.25
2022-07-12 09:53:00,,0830.9,5.00,0.00,30.0,28.9,00.0,38.8,31.9,28.9,0000.0,0018.76,0010.31,0009.30
2022-07-12 09:54:00,,0830.9,5.00,0.00,30.0,28.9,00.0,38.8,31.9,28.9,0000.0,0018.98,0010.38,0009.34
2022-07-12 09:55:00,,0830.9,5.00,0.00,30.1,29.0,00.0,38.8,32.0,28.8,0000.0,0018.58,0010.43,0009.36
2022-07-12 09:56:00,,0830.9,5.00,0.00,30.1,29.0,00.0,38.8,32.0,28.8,0000.0,0018.71,0010.48,0009.38
2022-07-12 09:57:00,,0830.9,5.00,0.00,30.1,29.0,00.0,38.9,32.0,28.8,0000.0,0018.72,0010.53,0009.41
2022-07-12 09:58:00,,0830.9,5.00,0.00,30.1,29.0,00.0,38.9,32.0,28.8,0000.0,0017.50,0010.53,0009.43
2022-07-12 09:59:00,,0830.9,5.01,0.00,30.1,29.1,00.0,38.9,32.0,28.8,0000.0,0017.14,0010.55,0009.45
